Time,TemperatureF,DewpointF,PressureIn,WindDirection,WindDirectionDegrees,WindSpeedMPH,WindSpeedGustMPH,Humidity,HourlyPrecipIn,Conditions,Clouds,dailyrainin,SoftwareType,DateUTC
2013-09-19 00:09:00,58.1,44.7,29.87,WSW,248,0.0,0.0,61,0.00,,,-99.99,Weather View 32 v60,2013-09-19 07:09:00,
2013-09-19 00:19:00,57.7,44.8,29.87,WSW,248,0.0,0.0,62,0.00,,,-99.99,Weather View 32 v60,2013-09-19 07:19:00,
2013-09-19 00:29:00,57.2,44.3,29.87,WSW,248,0.0,0.0,62,0.00,,,-99.99,Weather View 32 v60,2013-09-19 07:29:00,
2013-09-19 00:39:00,56.8,44.3,29.87,WSW,248,0.0,0.0,63,0.00,,,-99.99,Weather View 32 v60,2013-09-19 07:39:00,
2013-09-19 00:49:00,56.7,45.0,29.87,WSW,248,0.0,0.0,65,0.00,,,-99.99,Weather View 32 v60,2013-09-19 07:49:00,
2013-09-19 00:54:00,56.7,45.0,29.87,WSW,248,0.0,0.0,65,0.00,,,-99.99,Weather View 32 v60,2013-09-19 07:54:00,
2013-09-19 00:59:00,56.7,44.6,29.87,WSW,248,0.0,0.0,64,0.00,,,-99.99,Weather View 32 v60,2013-09-19 07:59:00,
2013-09-19 01:09:00,56.1,44.5,29.87,WSW,248,0.0,0.0,65,0.00,,,-99.99,Weather View 32 v60,2013-09-19 08:09:00,
2013-09-19 01:19:00,55.9,44.3,29.87,WSW,248,0.0,0.0,65,0.00,,,-99.99,Weather View 32 v60,2013-09-19 08:19:00,
2013-09-19 01:29:00,55.8,44.1,29.87,WSW,248,0.0,0.0,65,0.00,,,-99.99,Weather View 32 v60,2013-09-19 08:29:00,
2013-09-19 01:39:00,55.6,44.4,29.87,WSW,248,0.0,0.0,66,0.00,,,-99.99,Weather View 32 v60,2013-09-19 08:39:00,
2013-09-19 01:49:00,55.0,43.9,29.87,WSW,248,0.0,0.0,66,0.00,,,-99.99,Weather View 32 v60,2013-09-19 08:49:00,
2013-09-19 01:55:00,55.0,43.9,29.87,WSW,248,0.0,0.0,66,0.00,,,-99.99,Weather View 32 v60,2013-09-19 08:55:00,
2013-09-19 02:09:00,54.5,44.1,29.87,WSW,248,0.0,0.0,68,0.00,,,-99.99,Weather View 32 v60,2013-09-19 09:09:00,
2013-09-19 02:19:00,54.5,44.5,29.87,WSW,248,0.0,0.0,69,0.00,,,-99.99,Weather View 32 v60,2013-09-19 09:19:00,
2013-09-19 02:29:00,54.0,43.6,29.87,WSW,248,0.0,0.0,68,0.00,,,-99.99,Weather View 32 v60,2013-09-19 09:29:00,
2013-09-19 02:39:00,53.6,43.7,29.87,WSW,248,0.0,0.0,69,0.00,,,-99.99,Weather View 32 v60,2013-09-19 09:39:00,
2013-09-19 02:49:00,53.4,43.9,29.87,WSW,248,0.0,0.0,70,0.00,,,-99.99,Weather View 32 v60,2013-09-19 09:49:00,
2013-09-19 02:56:00,53.4,43.9,29.87,WSW,248,0.0,0.0,70,0.00,,,-99.99,Weather View 32 v60,2013-09-19 09:56:00,
2013-09-19 03:09:00,53.1,44.3,29.84,WSW,248,0.0,0.0,72,0.00,,,-99.99,Weather View 32 v60,2013-09-19 10:09:00,
2013-09-19 03:19:00,52.7,43.9,29.84,WSW,248,0.0,0.0,72,0.00,,,-99.99,Weather View 32 v60,2013-09-19 10:19:00,
2013-09-19 03:29:00,52.3,43.6,29.84,WSW,248,0.0,0.0,72,0.00,,,-99.99,Weather View 32 v60,2013-09-19 10:29:00,
2013-09-19 03:39:00,51.8,43.4,29.84,WSW,248,0.0,0.0,73,0.00,,,-99.99,Weather View 32 v60,2013-09-19 10:39:00,
2013-09-19 03:49:00,51.6,43.6,29.84,WSW,248,0.0,0.0,74,0.00,,,-99.99,Weather View 32 v60,2013-09-19 10:49:00,
2013-09-19 03:56:00,51.6,43.6,29.84,WSW,248,0.0,0.0,74,0.00,,,-99.99,Weather View 32 v60,2013-09-19 10:56:00,
2013-09-19 04:09:00,51.6,43.9,29.84,WSW,248,0.0,0.0,75,0.00,,,-99.99,Weather View 32 v60,2013-09-19 11:09:00,
2013-09-19 04:19:00,51.4,44.1,29.84,WSW,248,0.0,0.0,76,0.00,,,-99.99,Weather View 32 v60,2013-09-19 11:19:00,
2013-09-19 04:29:00,51.3,44.3,29.84,WSW,248,0.0,0.0,77,0.00,,,-99.99,Weather View 32 v60,2013-09-19 11:29:00,
2013-09-19 04:39:00,51.3,44.6,29.84,WSW,248,0.0,0.0,78,0.00,,,-99.99,Weather View 32 v60,2013-09-19 11:39:00,
2013-09-19 04:49:00,51.1,44.4,29.84,WSW,248,0.0,0.0,78,0.00,,,-99.99,Weather View 32 v60,2013-09-19 11:49:00,
2013-09-19 04:57:00,51.1,44.4,29.84,WSW,248,0.0,0.0,78,0.00,,,-99.99,Weather View 32 v60,2013-09-19 11:57:00,
2013-09-19 05:09:00,50.5,44.3,29.84,WSW,248,0.0,0.0,79,0.00,,,-99.99,Weather View 32 v60,2013-09-19 12:09:00,
2013-09-19 05:19:00,50.4,44.1,29.84,WSW,248,0.0,0.0,79,0.00,,,-99.99,Weather View 32 v60,2013-09-19 12:19:00,
2013-09-19 05:29:00,50.0,43.7,29.84,WSW,248,0.0,0.0,79,0.00,,,-99.99,Weather View 32 v60,2013-09-19 12:29:00,
2013-09-19 05:39:00,50.0,44.1,29.84,WSW,248,0.0,0.0,80,0.00,,,-99.99,Weather View 32 v60,2013-09-19 12:39:00,
2013-09-19 05:49:00,49.8,44.2,29.87,WSW,248,0.0,0.0,81,0.00,,,-99.99,Weather View 32 v60,2013-09-19 12:49:00,
2013-09-19 05:57:00,49.8,44.2,29.87,WSW,248,0.0,0.0,81,0.00,,,-99.99,Weather View 32 v60,2013-09-19 12:57:00,
2013-09-19 06:09:00,49.6,44.4,29.87,WSW,248,0.0,0.0,82,0.00,,,-99.99,Weather View 32 v60,2013-09-19 13:09:00,
2013-09-19 06:19:00,49.1,43.8,29.87,WSW,248,0.0,0.0,82,0.00,,,-99.99,Weather View 32 v60,2013-09-19 13:19:00,
2013-09-19 06:29:00,49.1,44.2,29.87,WSW,248,0.0,0.0,83,0.00,,,-99.99,Weather View 32 v60,2013-09-19 13:29:00,
2013-09-19 06:39:00,48.9,44.3,29.87,WSW,248,0.0,0.0,84,0.00,,,-99.99,Weather View 32 v60,2013-09-19 13:39:00,
2013-09-19 06:49:00,49.1,44.5,29.87,WSW,248,0.0,0.0,84,0.00,,,-99.99,Weather View 32 v60,2013-09-19 13:49:00,
2013-09-19 06:58:00,49.1,44.5,29.87,WSW,248,0.0,0.0,84,0.00,,,-99.99,Weather View 32 v60,2013-09-19 13:58:00,
2013-09-19 07:09:00,49.3,44.6,29.87,WSW,248,0.0,0.0,84,0.00,,,-99.99,Weather View 32 v60,2013-09-19 14:09:00,
2013-09-19 07:19:00,49.5,44.8,29.87,WSW,248,0.0,0.0,84,0.00,,,-99.99,Weather View 32 v60,2013-09-19 14:19:00,
2013-09-19 07:29:00,50.0,45.7,29.87,WSW,248,0.0,0.0,85,0.00,,,-99.99,Weather View 32 v60,2013-09-19 14:29:00,
2013-09-19 07:39:00,50.7,46.4,29.87,WSW,248,0.0,0.0,85,0.00,,,-99.99,Weather View 32 v60,2013-09-19 14:39:00,
2013-09-19 07:49:00,51.3,46.6,29.87,WSW,248,0.0,0.0,84,0.00,,,-99.99,Weather View 32 v60,2013-09-19 14:49:00,
2013-09-19 07:58:00,51.3,46.6,29.87,WSW,248,0.0,0.0,84,0.00,,,-99.99,Weather View 32 v60,2013-09-19 14:58:00,
2013-09-19 08:09:00,53.2,47.9,29.87,WSW,248,0.0,0.0,82,0.00,,,-99.99,Weather View 32 v60,2013-09-19 15:09:00,
2013-09-19 08:19:00,54.5,48.1,29.87,WSW,248,0.0,0.0,79,0.00,,,-99.99,Weather View 32 v60,2013-09-19 15:19:00,
2013-09-19 08:29:00,55.9,48.1,29.87,WSW,248,0.0,0.0,75,0.00,,,-99.99,Weather View 32 v60,2013-09-19 15:29:00,
2013-09-19 08:39:00,57.0,48.1,29.87,NNW,342,0.0,0.0,72,0.00,,,-99.99,Weather View 32 v60,2013-09-19 15:39:00,
2013-09-19 08:49:00,58.3,45.3,29.87,ENE,58,0.0,0.0,62,0.00,,,-99.99,Weather View 32 v60,2013-09-19 15:49:00,
2013-09-19 08:59:00,58.3,45.3,29.87,ENE,58,0.0,0.0,62,0.00,,,-99.99,Weather View 32 v60,2013-09-19 15:59:00,
2013-09-19 09:09:00,61.0,44.7,29.87,SE,124,0.0,0.0,55,0.00,,,-99.99,Weather View 32 v60,2013-09-19 16:09:00,
2013-09-19 09:19:00,62.2,45.3,29.87,NNE,15,0.0,0.0,54,0.00,,,-99.99,Weather View 32 v60,2013-09-19 16:19:00,
2013-09-19 09:29:00,63.7,44.6,29.87,ESE,118,0.0,0.0,50,0.00,,,-99.99,Weather View 32 v60,2013-09-19 16:29:00,
2013-09-19 09:39:00,65.1,43.2,29.87,ENE,74,0.0,0.0,45,0.00,,,-99.99,Weather View 32 v60,2013-09-19 16:39:00,
2013-09-19 09:49:00,66.7,40.9,29.87,SSW,197,0.0,0.0,39,0.00,,,-99.99,Weather View 32 v60,2013-09-19 16:49:00,
2013-09-19 09:59:00,66.7,40.9,29.87,SSW,197,0.0,0.0,39,0.00,,,-99.99,Weather View 32 v60,2013-09-19 16:59:00,
2013-09-19 10:09:00,69.4,40.5,29.87,NNE,33,0.0,0.0,35,0.00,,,-99.99,Weather View 32 v60,2013-09-19 17:09:00,
2013-09-19 10:19:00,70.9,41.0,29.87,NE,55,0.0,0.0,34,0.00,,,-99.99,Weather View 32 v60,2013-09-19 17:19:00,
2013-09-19 10:29:00,72.3,41.5,29.87,NNW,347,0.0,0.0,33,0.00,,,-99.99,Weather View 32 v60,2013-09-19 17:29:00,
2013-09-19 10:39:00,73.4,40.8,29.87,East,90,0.0,0.0,31,0.00,,,-99.99,Weather View 32 v60,2013-09-19 17:39:00,
2013-09-19 10:49:00,74.7,41.9,29.87,East,91,0.0,0.0,31,0.00,,,-99.99,Weather View 32 v60,2013-09-19 17:49:00,
2013-09-19 11:00:00,76.3,42.5,29.87,NW,319,0.0,0.0,30,0.00,,,-99.99,Weather View 32 v60,2013-09-19 18:00:00,
2013-09-19 11:09:00,77.5,43.6,29.87,West,278,0.0,0.0,30,0.00,,,-99.99,Weather View 32 v60,2013-09-19 18:09:00,
2013-09-19 11:19:00,79.0,42.1,29.87,NNE,23,0.0,0.0,27,0.00,,,-99.99,Weather View 32 v60,2013-09-19 18:19:00,
2013-09-19 11:29:00,80.2,42.1,29.87,NNW,340,0.0,0.0,26,0.00,,,-99.99,Weather View 32 v60,2013-09-19 18:29:00,
2013-09-19 11:39:00,82.0,41.6,29.87,ESE,105,0.0,0.0,24,0.00,,,-99.99,Weather View 32 v60,2013-09-19 18:39:00,
2013-09-19 11:49:00,83.5,41.7,29.87,WSW,245,0.0,0.0,23,0.00,,,-99.99,Weather View 32 v60,2013-09-19 18:49:00,
2013-09-19 11:59:00,84.6,40.2,29.84,NNE,29,0.0,0.0,21,0.00,,,-99.99,Weather View 32 v60,2013-09-19 18:59:00,
2013-09-19 12:09:00,85.6,39.8,29.84,NW,320,0.0,0.0,20,0.00,,,-99.99,Weather View 32 v60,2013-09-19 19:09:00,
2013-09-19 12:19:00,85.8,40.0,29.84,WSW,253,0.0,0.0,20,0.00,,,-99.99,Weather View 32 v60,2013-09-19 19:19:00,
2013-09-19 12:29:00,86.5,39.3,29.84,WSW,243,0.0,0.0,19,0.00,,,-99.99,Weather View 32 v60,2013-09-19 19:29:00,
2013-09-19 12:39:00,87.6,40.1,29.84,NNW,343,0.0,0.0,19,0.00,,,-99.99,Weather View 32 v60,2013-09-19 19:39:00,
2013-09-19 12:50:00,88.5,40.9,29.84,NW,325,0.0,0.0,19,0.00,,,-99.99,Weather View 32 v60,2013-09-19 19:50:00,
2013-09-19 13:00:00,89.2,41.5,29.84,West,262,0.0,0.0,19,0.00,,,-99.99,Weather View 32 v60,2013-09-19 20:00:00,
2013-09-19 13:09:00,89.6,40.3,29.84,NNW,332,0.0,0.0,18,0.00,,,-99.99,Weather View 32 v60,2013-09-19 20:09:00,
2013-09-19 13:19:00,90.5,41.1,29.84,SSW,195,0.0,0.0,18,0.00,,,-99.99,Weather View 32 v60,2013-09-19 20:19:00,
2013-09-19 13:29:00,91.2,40.2,29.81,WSW,250,0.0,0.0,17,0.00,,,-99.99,Weather View 32 v60,2013-09-19 20:29:00,
2013-09-19 13:40:00,91.9,40.8,29.81,SW,230,0.0,0.0,17,0.00,,,-99.99,Weather View 32 v60,2013-09-19 20:40:00,
2013-09-19 13:50:00,91.8,40.6,29.81,SE,125,0.0,0.0,17,0.00,,,-99.99,Weather View 32 v60,2013-09-19 20:50:00,
2013-09-19 14:00:00,92.5,41.2,29.81,NW,325,0.0,0.0,17,0.00,,,-99.99,Weather View 32 v60,2013-09-19 21:00:00,
2013-09-19 14:10:00,93.4,41.9,29.81,SW,236,0.0,0.0,17,0.00,,,-99.99,Weather View 32 v60,2013-09-19 21:10:00,
2013-09-19 14:19:00,93.7,42.2,29.81,SSE,155,0.0,0.0,17,0.00,,,-99.99,Weather View 32 v60,2013-09-19 21:19:00,
2013-09-19 14:30:00,94.6,41.3,29.79,NNW,327,0.0,0.0,16,0.00,,,-99.99,Weather View 32 v60,2013-09-19 21:30:00,
2013-09-19 14:40:00,94.8,41.5,29.79,South,172,0.0,0.0,16,0.00,,,-99.99,Weather View 32 v60,2013-09-19 21:40:00,
2013-09-19 14:50:00,95.2,41.8,29.79,North,351,0.0,0.0,16,0.00,,,-99.99,Weather View 32 v60,2013-09-19 21:50:00,
2013-09-19 14:59:00,95.4,41.9,29.79,SW,214,0.0,0.0,16,0.00,,,-99.99,Weather View 32 v60,2013-09-19 21:59:00,
2013-09-19 15:10:00,94.8,41.5,29.79,WSW,250,0.0,0.0,16,0.00,,,-99.99,Weather View 32 v60,2013-09-19 22:10:00,
2013-09-19 15:20:00,95.0,41.6,29.79,WSW,238,0.0,5.0,16,0.00,,,-99.99,Weather View 32 v60,2013-09-19 22:20:00,
2013-09-19 15:30:00,95.0,41.6,29.79,SW,224,0.0,7.0,16,0.00,,,-99.99,Weather View 32 v60,2013-09-19 22:30:00,
2013-09-19 15:39:00,95.4,43.5,29.79,SW,233,0.0,7.0,17,0.00,,,-99.99,Weather View 32 v60,2013-09-19 22:39:00,
2013-09-19 15:49:00,95.5,42.1,29.76,West,266,3.0,7.0,16,0.00,,,-99.99,Weather View 32 v60,2013-09-19 22:49:00,
2013-09-19 15:59:00,95.9,43.9,29.76,WNW,295,4.0,7.0,17,0.00,,,-99.99,Weather View 32 v60,2013-09-19 22:59:00,
2013-09-19 16:09:00,95.4,41.9,29.76,SW,230,0.0,7.0,16,0.00,,,-99.99,Weather View 32 v60,2013-09-19 23:09:00,
2013-09-19 16:19:00,94.6,42.9,29.76,SSW,212,0.0,7.0,17,0.00,,,-99.99,Weather View 32 v60,2013-09-19 23:19:00,
2013-09-19 16:29:00,94.3,42.6,29.76,WNW,287,0.0,7.0,17,0.00,,,-99.99,Weather View 32 v60,2013-09-19 23:29:00,
2013-09-19 16:39:00,93.0,41.6,29.76,SW,236,3.0,9.0,17,0.00,,,-99.99,Weather View 32 v60,2013-09-19 23:39:00,
2013-09-19 16:50:00,93.0,41.6,29.76,SW,232,4.0,9.0,17,0.00,,,-99.99,Weather View 32 v60,2013-09-19 23:50:00,
2013-09-19 17:00:00,92.3,42.5,29.76,WSW,243,0.0,10.0,18,0.00,,,-99.99,Weather View 32 v60,2013-09-20 00:00:00,
2013-09-19 17:09:00,0.0,0.0,29.76,SW,226,0.0,10.0,0,0.00,,,-99.99,Weather View 32 v60,2013-09-20 00:09:00,
2013-09-19 17:19:00,0.0,0.0,29.76,WSW,248,4.0,10.0,0,0.00,,,-99.99,Weather View 32 v60,2013-09-20 00:19:00,
2013-09-19 17:29:00,0.0,0.0,29.76,West,277,0.0,11.0,0,0.00,,,-99.99,Weather View 32 v60,2013-09-20 00:29:00,
2013-09-19 17:39:00,88.7,39.6,29.76,NNW,344,0.0,12.0,18,0.00,,,-99.99,Weather View 32 v60,2013-09-20 00:39:00,
2013-09-19 17:49:00,87.6,38.7,29.76,SW,236,4.0,12.0,18,0.00,,,-99.99,Weather View 32 v60,2013-09-20 00:49:00,
2013-09-19 18:00:00,87.1,38.3,29.76,SW,228,0.0,12.0,18,0.00,,,-99.99,Weather View 32 v60,2013-09-20 01:00:00,
2013-09-19 18:09:00,86.5,39.3,29.76,WSW,245,0.0,12.0,19,0.00,,,-99.99,Weather View 32 v60,2013-09-20 01:09:00,
2013-09-19 18:20:00,85.5,38.4,29.76,North,8,0.0,12.0,19,0.00,,,-99.99,Weather View 32 v60,2013-09-20 01:20:00,
2013-09-19 18:29:00,83.8,37.1,29.76,WSW,242,0.0,12.0,19,0.00,,,-99.99,Weather View 32 v60,2013-09-20 01:29:00,
2013-09-19 18:39:00,82.8,36.2,29.76,West,266,4.0,11.0,19,0.00,,,-99.99,Weather View 32 v60,2013-09-20 01:39:00,
2013-09-19 18:49:00,81.5,36.4,29.76,SW,233,0.0,9.0,20,0.00,,,-99.99,Weather View 32 v60,2013-09-20 01:49:00,
2013-09-19 19:00:00,80.1,35.3,29.76,WSW,238,4.0,10.0,20,0.00,,,-99.99,Weather View 32 v60,2013-09-20 02:00:00,
2013-09-19 19:09:00,79.2,34.5,29.76,SSW,205,3.0,13.0,20,0.00,,,-99.99,Weather View 32 v60,2013-09-20 02:09:00,
2013-09-19 19:19:00,78.3,33.8,29.76,SSW,213,0.0,13.0,20,0.00,,,-99.99,Weather View 32 v60,2013-09-20 02:19:00,
2013-09-19 19:29:00,77.7,34.6,29.76,WNW,288,0.0,13.0,21,0.00,,,-99.99,Weather View 32 v60,2013-09-20 02:29:00,
2013-09-19 19:39:00,77.0,34.0,29.76,SW,222,0.0,13.0,21,0.00,,,-99.99,Weather View 32 v60,2013-09-20 02:39:00,
2013-09-19 19:49:00,76.1,33.2,29.76,NNW,346,0.0,13.0,21,0.00,,,-99.99,Weather View 32 v60,2013-09-20 02:49:00,
2013-09-19 20:00:00,75.4,32.6,29.76,North,351,0.0,13.0,21,0.00,,,-99.99,Weather View 32 v60,2013-09-20 03:00:00,
2013-09-19 20:05:00,75.4,32.6,29.76,North,351,0.0,13.0,21,0.00,,,-99.99,Weather View 32 v60,2013-09-20 03:05:00,
2013-09-19 20:19:00,73.9,32.6,29.79,North,351,0.0,6.0,22,0.00,,,-99.99,Weather View 32 v60,2013-09-20 03:19:00,
2013-09-19 20:30:00,73.0,31.8,29.79,North,356,0.0,0.0,22,0.00,,,-99.99,Weather View 32 v60,2013-09-20 03:30:00,
2013-09-19 20:39:00,72.0,32.1,29.79,North,356,0.0,0.0,23,0.00,,,-99.99,Weather View 32 v60,2013-09-20 03:39:00,
2013-09-19 20:49:00,71.2,33.5,29.79,North,351,0.0,0.0,25,0.00,,,-99.99,Weather View 32 v60,2013-09-20 03:49:00,
2013-09-19 21:00:00,70.5,39.2,29.79,South,188,0.0,0.0,32,0.00,,,-99.99,Weather View 32 v60,2013-09-20 04:00:00,
2013-09-19 21:05:00,70.5,39.2,29.79,South,188,0.0,0.0,32,0.00,,,-99.99,Weather View 32 v60,2013-09-20 04:05:00,
2013-09-19 21:10:00,70.0,39.5,29.79,East,85,0.0,0.0,33,0.00,,,-99.99,Weather View 32 v60,2013-09-20 04:10:00,
2013-09-19 21:19:00,69.4,39.8,29.79,SW,231,0.0,0.0,34,0.00,,,-99.99,Weather View 32 v60,2013-09-20 04:19:00,
2013-09-19 21:29:00,68.5,41.2,29.79,SW,214,0.0,0.0,37,0.00,,,-99.99,Weather View 32 v60,2013-09-20 04:29:00,
2013-09-19 21:40:00,67.8,41.9,29.79,SW,223,0.0,0.0,39,0.00,,,-99.99,Weather View 32 v60,2013-09-20 04:40:00,
2013-09-19 21:49:00,67.3,42.1,29.79,South,180,0.0,0.0,40,0.00,,,-99.99,Weather View 32 v60,2013-09-20 04:49:00,
2013-09-19 22:00:00,66.7,42.9,29.79,WSW,246,0.0,0.0,42,0.00,,,-99.99,Weather View 32 v60,2013-09-20 05:00:00,
2013-09-19 22:06:00,66.7,42.9,29.79,WSW,246,0.0,0.0,42,0.00,,,-99.99,Weather View 32 v60,2013-09-20 05:06:00,
2013-09-19 22:19:00,65.1,43.8,29.79,SW,232,0.0,0.0,46,0.00,,,-99.99,Weather View 32 v60,2013-09-20 05:19:00,
2013-09-19 22:29:00,64.6,44.4,29.79,SW,236,0.0,0.0,48,0.00,,,-99.99,Weather View 32 v60,2013-09-20 05:29:00,
2013-09-19 22:40:00,64.0,45.0,29.79,WSW,240,0.0,0.0,50,0.00,,,-99.99,Weather View 32 v60,2013-09-20 05:40:00,
2013-09-19 22:49:00,63.5,45.5,29.81,SW,218,0.0,0.0,52,0.00,,,-99.99,Weather View 32 v60,2013-09-20 05:49:00,
2013-09-19 23:00:00,63.3,45.3,29.81,SW,218,0.0,0.0,52,0.00,,,-99.99,Weather View 32 v60,2013-09-20 06:00:00,
2013-09-19 23:06:00,63.3,45.3,29.81,SW,218,0.0,0.0,52,0.00,,,-99.99,Weather View 32 v60,2013-09-20 06:06:00,
2013-09-19 23:19:00,62.4,46.5,29.81,SW,219,0.0,0.0,56,0.00,,,-99.99,Weather View 32 v60,2013-09-20 06:19:00,
2013-09-19 23:29:00,62.2,45.8,29.81,SW,235,0.0,0.0,55,0.00,,,-99.99,Weather View 32 v60,2013-09-20 06:29:00,
2013-09-19 23:39:00,61.7,45.8,29.81,SW,235,0.0,0.0,56,0.00,,,-99.99,Weather View 32 v60,2013-09-20 06:39:00,
2013-09-19 23:49:00,61.0,46.1,29.81,WNW,292,0.0,0.0,58,0.00,,,-99.99,Weather View 32 v60,2013-09-20 06:49:00,
2013-09-19 23:59:00,60.8,46.8,29.79,WNW,292,0.0,0.0,60,0.00,,,-99.99,Weather View 32 v60,2013-09-20 06:59:00,